Location: Newark
(50.9000°N, 14.8333°E)
Time: 18:55:16
(UTC+00:00)

N. Korean satellite - Pass Details

Date: 29 October 2020
Orbit: 453 x 503 km, 97.2° (Epoch: 04 December)

Event Time Altitude Azimuth Distance (km) Brightness Sun altitude
Rises 16:43:32 0° 209° (SSW) 2,537 10.8 -10.5°
Reaches altitude 10° 16:46:20 10° 233° (SW) 1,652 10.3 -10.9°
Maximum altitude 16:48:25 15° 270° (W) 1,374 10.2 -11.3°
Drops below altitude 10° 16:50:30 10° 306° (NW) 1,644 10.0 -11.6°
Sets 16:53:17 0° 331° (NNW) 2,516 10.5 -12.0°
